Location: Bailleul
(50.3375°N, 2.8513°E)
Time: 08:01:56
(UTC+00:00)

Cosmos 1455 - Pass Details

Date: 16 June 2021
Orbit: 496 x 522 km, 82.5° (Epoch: 26 July)

Event Time Altitude Azimuth Distance (km) Brightness Sun altitude
Rises 21:54:08 0° 1° (N) 2,656 7.0 -12.0°
Reaches altitude 10° 21:56:43 10° 18° (NNE) 1,758 5.6 -12.2°
Maximum altitude 21:59:39 21° 68° (ENE) 1,219 4.0 -12.4°
Enters shadow 22:02:05 12° 112° (ESE) 1,595 4.2 -12.5°
